Location: *
(49.8044°N, 4.0558°E)
Time: 10:59:33
(UTC+00:00)

ARGOS - Pass Details

Date: 09 April 2020
Orbit: 820 x 834 km, 98.5° (Epoch: 27 May)

Event Time Altitude Azimuth Distance (km) Brightness Sun altitude
Rises 19:23:13 0° 168° (SSE) 3,358 6.0 -9.2°
Reaches altitude 10° 19:25:34 10° 170° (S) 2,427 5.3 -9.5°
Maximum altitude 19:30:57 75° 256° (WSW) 858 3.4 -10.3°
Drops below altitude 10° 19:36:21 10° 343° (NNW) 2,435 6.3 -11.1°
Sets 19:38:43 0° 345° (NNW) 3,371 7.0 -11.4°
